QPF
0.00 0.00 0.00 0.00 0.00 0.00 0.00 0.00 0.00 0.00 0.00 0.00 0.00 0.00 0.00 0.00 0.00 0.00 0.00 0.00 0.00 0.00 0.00 0.00 0.00 0.00 0.00 0.01 0.02 0.04 0.05 0.03 0.02 0.00 0.00 0.00 0.00 0.00 0.00 0.00 0.00 0.00 0.00
0.00 0.00 0.00 0.00 0.00 0.00 0.00 0.00 0.00 0.00 0.00 0.00 0.00 0.00 0.00 0.00 0.00 0.00 0.00 0.00 0.00 0.00 0.00 0.00 0.01 0.00 0.00 0.01 0.01 0.02 0.02 0.01 0.00 0.00 0.00 0.00 0.00 0.00 0.00 0.00 0.00 0.00 0.00
0.00 0.00 0.00 0.00 0.00 0.00 0.00 0.00 0.00 0.00 0.00 0.00 0.00 0.00 0.00 0.00 0.00 0.00 0.00 0.00 0.00 0.00 0.00 0.00 0.00 0.00 0.00 0.00 0.00 0.00 0.00 0.00 0.00 0.00 0.00 0.00 0.00 0.00 0.00 0.00 0.00 0.00 0.00
0.01 0.00 0.00 0.00 0.00 0.00 0.00 0.00 0.00 0.00 0.00 0.00 0.00 0.00 0.00 0.00 0.00 0.00 0.00 0.00 0.00 0.00 0.00 0.00 0.00 0.00 0.00 0.00 0.00 0.00 0.00 0.00 0.00 0.00 0.00 0.00 0.00 0.00 0.01 0.00 0.00 0.00 0.00
0.01 0.01 0.01 0.00 0.00 0.00 0.00 0.00 0.00 0.00 0.00 0.00 0.00 0.00 0.00 0.00 0.00 0.00 0.00 0.00 0.00 0.00 0.00 0.00 0.00 0.00 0.00 0.00 0.00 0.00 0.00 0.00 0.00 0.00 0.00 0.00 0.00 0.01 0.01 0.00 0.00 0.00 0.00
0.01 0.01 0.01 0.00 0.00 0.00 0.00 0.00 0.00 0.00 0.00 0.00 0.00 0.00 0.00 0.00 0.00 0.00 0.00 0.00 0.00 0.00 0.00 0.00 0.00 0.00 0.00 0.01 0.01 0.01 0.01 0.00 0.00 0.00 0.00 0.00 0.00 0.01 0.00 0.00 0.00 0.00 0.00
0.00 0.01 0.01 0.00 0.00 0.00 0.00 0.00 0.00 0.00 0.00 0.00 0.00 0.00 0.00 0.00 0.00 0.00 0.00 0.00 0.00 0.00 0.00 0.00 0.00 0.00 0.00 0.01 0.01 0.01 0.01 0.00 0.00 0.00 0.00 0.00 0.00 0.00 0.00 0.00 0.00 0.00 0.00
0.01 0.00 0.00 0.01 0.01 0.00 0.00 0.00 0.00 0.00 0.00 0.00 0.00 0.00 0.00 0.00 0.00 0.00 0.00 0.00 0.00 0.00 0.00 0.00 0.00 0.00 0.00 0.00 0.01 0.00 0.00 0.00 0.00 0.00 0.00 0.00 0.00 0.00 0.00 0.00 0.00 0.00 0.01
0.00 0.00 0.00 0.01 0.01 0.01 0.01 0.00 0.00 0.00 0.00 0.00 0.00 0.00 0.00 0.00 0.00 0.00 0.00 0.00 0.00 0.00 0.00 0.00 0.00 0.00 0.00 0.00 0.01 0.01 0.00 0.00 0.00 0.00 0.00 0.00 0.00 0.00 0.00 0.00 0.00 0.01 0.01
0.01 0.00 0.00 0.00 0.01 0.01 0.01 0.00 0.00 0.00 0.00 0.00 0.00 0.00 0.00 0.00 0.00 0.00 0.00 0.00 0.00 0.00 0.00 0.00 0.00 0.00 0.00 0.00 0.01 0.01 0.01 0.00 0.00 0.00 0.00 0.00 0.00 0.00 0.00 0.00 0.00 0.01 0.01
0.01 0.00 0.00 0.00 0.01 0.01 0.01 0.01 0.00 0.00 0.00 0.00 0.00 0.00 0.00 0.00 0.00 0.00 0.00 0.00 0.00 0.00 0.00 0.00 0.00 0.00 0.00 0.00 0.00 0.01 0.01 0.01 0.00 0.00 0.00 0.00 0.00 0.00 0.00 0.00 0.01 0.01 0.01
0.00 0.00 0.00 0.00 0.00 0.01 0.01 0.00 0.00 0.00 0.00 0.00 0.00 0.00 0.00 0.00 0.00 0.00 0.00 0.00 0.00 0.00 0.00 0.00 0.00 0.00 0.00 0.00 0.00 0.00 0.01 0.00 0.00 0.00 0.00 0.00 0.00 0.00 0.00 0.01 0.01 0.01 0.01
0.00 0.00 0.00 0.00 0.00 0.00 0.00 0.00 0.00 0.00 0.00 0.00 0.00 0.00 0.00 0.00 0.00 0.00 0.00 0.00 0.00 0.00 0.00 0.00 0.00 0.00 0.00 0.00 0.00 0.00 0.00 0.00 0.00 0.00 0.00 0.00 0.00 0.00 0.00 0.01 0.00 0.01 0.00
0.01 0.00 0.00 0.00 0.00 0.00 0.00 0.00 0.00 0.00 0.00 0.00 0.00 0.00 0.00 0.00 0.00 0.00 0.00 0.00 0.00 0.00 0.00 0.00 0.00 0.00 0.00 0.00 0.00 0.00 0.00 0.00 0.00 0.00 0.00 0.00 0.00 0.00 0.00 0.00 0.00 0.00 0.00
0.01 0.01 0.01 0.01 0.01 0.01 0.01 0.01 0.01 0.01 0.01 0.01 0.00 0.00 0.00 0.00 0.00 0.00 0.00 0.00 0.00 0.00 0.00 0.00 0.00 0.00 0.00 0.00 0.00 0.00 0.00 0.00 0.00 0.00 0.00 0.00 0.00 0.00 0.00 0.00 0.00 0.00 0.00
0.01 0.01 0.01 0.01 0.01 0.01 0.01 0.01 0.01 0.01 0.01 0.00 0.00 0.01 0.01 0.00 0.00 0.00 0.00 0.00 0.00 0.00 0.00 0.00 0.00 0.00 0.00 0.00 0.00 0.00 0.00 0.00 0.00 0.00 0.00 0.00 0.00 0.00 0.00 0.00 0.00 0.00 0.00
0.01 0.01 0.01 0.01 0.01 0.01 0.01 0.01 0.01 0.01 0.01 0.01 0.01 0.01 0.01 0.01 0.00 0.00 0.00 0.00 0.00 0.00 0.00 0.00 0.00 0.00 0.00 0.00 0.00 0.00 0.00 0.00 0.00 0.00 0.00 0.00 0.00 0.00 0.00 0.00 0.00 0.00 0.00
0.01 0.01 0.01 0.01 0.01 0.01 0.01 0.01 0.01 0.01 0.01 0.01 0.01 0.01 0.01 0.01 0.00 0.00 0.00 0.00 0.00 0.00 0.00 0.00 0.00 0.00 0.00 0.00 0.00 0.00 0.00 0.00 0.00 0.00 0.00 0.00 0.00 0.00 0.00 0.00 0.00 0.00 0.00
0.01 0.01 0.01 0.02 0.01 0.01 0.01 0.01 0.01 0.01 0.01 0.01 0.01 0.01 0.01 0.01 0.00 0.00 0.00 0.00 0.00 0.00 0.00 0.00 0.00 0.00 0.00 0.00 0.00 0.00 0.00 0.00 0.00 0.00 0.00 0.00 0.00 0.00 0.00 0.00 0.00 0.00 0.00
0.01 0.01 0.01 0.01 0.02 0.02 0.01 0.01 0.01 0.00 0.00 0.00 0.01 0.01 0.01 0.00 0.00 0.00 0.00 0.00 0.00 0.00 0.00 0.00 0.00 0.00 0.00 0.00 0.00 0.00 0.00 0.00 0.00 0.00 0.00 0.00 0.00 0.00 0.00 0.00 0.00 0.00 0.01
0.01 0.01 0.01 0.01 0.00 0.01 0.01 0.01 0.01 0.01 0.01 0.01 0.01 0.01 0.01 0.01 0.01 0.01 0.01 0.01 0.01 0.00 0.00 0.00 0.00 0.00 0.00 0.00 0.00 0.00 0.00 0.00 0.00 0.00 0.00 0.00 0.00 0.00 0.00 0.00 0.00 0.01 0.01
0.00 0.00 0.00 0.00 0.00 0.00 0.01 0.01 0.01 0.01 0.01 0.02 0.01 0.01 0.01 0.01 0.01 0.01 0.01 0.01 0.01 0.01 0.01 0.01 0.01 0.01 0.01 0.01 0.01 0.01 0.00 0.00 0.00 0.00 0.00 0.00 0.00 0.00 0.01 0.01 0.01 0.01 0.01
0.00 0.00 0.00 0.00 0.00 0.00 0.01 0.00 0.00 0.01 0.01 0.00 0.01 0.00 0.01 0.00 0.00 0.00 0.00 0.01 0.01 0.01 0.01 0.01 0.01 0.01 0.01 0.01 0.01 0.01 0.00 0.01 0.01 0.01 0.01 0.01 0.01 0.01 0.01 0.01 0.01 0.01 0.01
0.00 0.00 0.00 0.00 0.00 0.00 0.00 0.00 0.00 0.00 0.00 0.00 0.00 0.00 0.00 0.00 0.00 0.00 0.01 0.01 0.01 0.01 0.01 0.01 0.01 0.01 0.01 0.01 0.00 0.00 0.01 0.01 0.01 0.01 0.01 0.01 0.01 0.01 0.01 0.01 0.01 0.01 0.01
0.00 0.00 0.00 0.00 0.00 0.00 0.00 0.00 0.00 0.00 0.00 0.00 0.00 0.00 0.00 0.00 0.00 0.00 0.01 0.01 0.00 0.00 0.00 0.00 0.00 0.00 0.00 0.00 0.00 0.00 0.01 0.00 0.00 0.00 0.00 0.00 0.01 0.01 0.01 0.02 0.02 0.02 0.02
0.00 0.00 0.00 0.00 0.00 0.00 0.00 0.00 0.00 0.00 0.00 0.00 0.00 0.00 0.00 0.00 0.00 0.00 0.00 0.00 0.00 0.00 0.00 0.00 0.00 0.00 0.00 0.00 0.00 0.00 0.00 0.00 0.00 0.00 0.00 0.01 0.01 0.01 0.02 0.02 0.01 0.01 0.01
MSLP
1018.08 1018.45 1018.83 1019.19 1019.53 1019.83 1020.10 1020.33 1020.54 1020.76 1020.98 1021.22 1021.48 1021.74 1021.98 1022.20 1022.37 1022.48 1022.54 1022.55 1022.53 1022.50 1022.47 1022.47 1022.49 1022.55 1022.65 1022.78 1022.93 1023.11 1023.29 1023.49 1023.71 1023.93 1024.15 1024.37 1024.57 1024.76 1024.91 1025.03 1025.11 1025.15 1025.17
1017.88 1018.28 1018.67 1019.04 1019.38 1019.70 1019.98 1020.25 1020.51 1020.77 1021.04 1021.32 1021.61 1021.90 1022.18 1022.42 1022.62 1022.76 1022.85 1022.89 1022.90 1022.88 1022.87 1022.86 1022.86 1022.89 1022.94 1023.01 1023.10 1023.20 1023.33 1023.47 1023.64 1023.82 1024.02 1024.23 1024.43 1024.62 1024.79 1024.92 1025.01 1025.07 1025.10
1017.65 1018.08 1018.49 1018.87 1019.23 1019.57 1019.88 1020.19 1020.49 1020.79 1021.10 1021.42 1021.74 1022.05 1022.34 1022.59 1022.80 1022.96 1023.07 1023.14 1023.18 1023.19 1023.20 1023.21 1023.22 1023.23 1023.26 1023.29 1023.34 1023.39 1023.47 1023.56 1023.68 1023.82 1023.98 1024.16 1024.34 1024.51 1024.66 1024.78 1024.87 1024.92 1024.93
1017.36 1017.83 1018.26 1018.67 1019.05 1019.41 1019.76 1020.10 1020.44 1020.79 1021.13 1021.47 1021.81 1022.13 1022.42 1022.67 1022.88 1023.04 1023.17 1023.26 1023.33 1023.37 1023.42 1023.45 1023.49 1023.52 1023.55 1023.58 1023.60 1023.63 1023.66 1023.72 1023.79 1023.89 1024.01 1024.15 1024.30 1024.44 1024.56 1024.64 1024.70 1024.71 1024.69
1016.99 1017.50 1017.97 1018.40 1018.82 1019.21 1019.59 1019.97 1020.35 1020.72 1021.09 1021.45 1021.79 1022.11 1022.38 1022.62 1022.82 1022.98 1023.11 1023.21 1023.30 1023.38 1023.46 1023.54 1023.62 1023.69 1023.74 1023.78 1023.81 1023.83 1023.84 1023.87 1023.91 1023.97 1024.06 1024.15 1024.26 1024.36 1024.44 1024.48 1024.49 1024.46 1024.39
1016.54 1017.08 1017.59 1018.06 1018.50 1018.92 1019.34 1019.74 1020.15 1020.55 1020.93 1021.30 1021.64 1021.95 1022.21 1022.43 1022.60 1022.75 1022.87 1022.98 1023.09 1023.20 1023.32 1023.45 1023.57 1023.67 1023.77 1023.84 1023.88 1023.91 1023.93 1023.94 1023.96 1023.99 1024.03 1024.09 1024.16 1024.22 1024.25 1024.26 1024.23 1024.15 1024.03
1015.99 1016.58 1017.12 1017.62 1018.09 1018.54 1018.97 1019.40 1019.83 1020.25 1020.64 1021.02 1021.35 1021.64 1021.88 1022.08 1022.24 1022.37 1022.48 1022.59 1022.71 1022.85 1023.00 1023.16 1023.32 1023.47 1023.61 1023.71 1023.78 1023.82 1023.84 1023.85 1023.85 1023.86 1023.88 1023.90 1023.94 1023.96 1023.97 1023.94 1023.88 1023.77 1023.62
1015.39 1016.00 1016.57 1017.09 1017.58 1018.04 1018.50 1018.95 1019.38 1019.81 1020.21 1020.59 1020.92 1021.20 1021.43 1021.61 1021.75 1021.87 1021.98 1022.09 1022.21 1022.36 1022.53 1022.72 1022.91 1023.09 1023.26 1023.39 1023.48 1023.54 1023.56 1023.57 1023.56 1023.55 1023.54 1023.54 1023.55 1023.55 1023.53 1023.49 1023.41 1023.29 1023.12
1014.74 1015.38 1015.96 1016.50 1017.00 1017.48 1017.94 1018.39 1018.83 1019.26 1019.67 1020.04 1020.37 1020.66 1020.89 1021.06 1021.20 1021.32 1021.42 1021.53 1021.65 1021.80 1021.98 1022.18 1022.38 1022.58 1022.76 1022.90 1023.01 1023.07 1023.10 1023.10 1023.07 1023.05 1023.02 1023.00 1022.99 1022.97 1022.95 1022.90 1022.82 1022.70 1022.54
1014.11 1014.75 1015.34 1015.88 1016.38 1016.86 1017.32 1017.77 1018.21 1018.64 1019.05 1019.43 1019.77 1020.06 1020.30 1020.49 1020.64 1020.76 1020.86 1020.97 1021.09 1021.24 1021.41 1021.60 1021.80 1021.99 1022.17 1022.31 1022.41 1022.47 1022.49 1022.47 1022.44 1022.39 1022.34 1022.31 1022.28 1022.25 1022.22 1022.18 1022.11 1022.01 1021.86
1013.51 1014.15 1014.74 1015.27 1015.77 1016.24 1016.69 1017.13 1017.57 1017.99 1018.40 1018.79 1019.15 1019.45 1019.71 1019.92 1020.09 1020.23 1020.34 1020.45 1020.57 1020.71 1020.86 1021.03 1021.20 1021.38 1021.53 1021.65 1021.74 1021.78 1021.78 1021.75 1021.69 1021.62 1021.55 1021.49 1021.44 1021.40 1021.37 1021.33 1021.27 1021.19 1021.07
1013.00 1013.62 1014.19 1014.72 1015.20 1015.66 1016.09 1016.52 1016.95 1017.37 1017.78 1018.17 1018.54 1018.87 1019.15 1019.39 1019.58 1019.74 1019.87 1019.99 1020.10 1020.21 1020.34 1020.47 1020.61 1020.75 1020.87 1020.96 1021.01 1021.03 1021.00 1020.95 1020.87 1020.78 1020.68 1020.60 1020.53 1020.47 1020.42 1020.38 1020.33 1020.26 1020.16
1012.58 1013.18 1013.73 1014.24 1014.70 1015.14 1015.56 1015.97 1016.38 1016.78 1017.19 1017.59 1017.97 1018.31 1018.62 1018.89 1019.11 1019.29 1019.43 1019.54 1019.64 1019.73 1019.83 1019.92 1020.01 1020.10 1020.17 1020.23 1020.25 1020.23 1020.19 1020.11 1020.00 1019.88 1019.76 1019.65 1019.55 1019.46 1019.39 1019.33 1019.28 1019.21 1019.12
1012.28 1012.84 1013.36 1013.84 1014.29 1014.70 1015.10 1015.49 1015.88 1016.27 1016.66 1017.05 1017.44 1017.79 1018.12 1018.40 1018.64 1018.83 1018.98 1019.09 1019.17 1019.23 1019.29 1019.34 1019.38 1019.42 1019.44 1019.45 1019.44 1019.39 1019.32 1019.22 1019.09 1018.95 1018.80 1018.66 1018.52 1018.41 1018.31 1018.22 1018.14 1018.07 1017.98
1012.08 1012.60 1013.08 1013.54 1013.95 1014.34 1014.72 1015.08 1015.44 1015.81 1016.19 1016.56 1016.93 1017.29 1017.62 1017.90 1018.15 1018.34 1018.49 1018.59 1018.65 1018.68 1018.69 1018.69 1018.69 1018.67 1018.65 1018.62 1018.57 1018.50 1018.40 1018.28 1018.14 1017.98 1017.81 1017.63 1017.47 1017.31 1017.18 1017.06 1016.96 1016.86 1016.76
1011.97 1012.44 1012.89 1013.30 1013.69 1014.05 1014.40 1014.74 1015.07 1015.41 1015.76 1016.11 1016.46 1016.80 1017.11 1017.39 1017.63 1017.81 1017.94 1018.02 1018.06 1018.06 1018.03 1017.98 1017.93 1017.87 1017.80 1017.73 1017.65 1017.55 1017.44 1017.30 1017.15 1016.97 1016.78 1016.59 1016.40 1016.21 1016.05 1015.90 1015.77 1015.65 1015.54
1011.94 1012.35 1012.75 1013.13 1013.49 1013.82 1014.14 1014.45 1014.76 1015.06 1015.38 1015.70 1016.01 1016.32 1016.61 1016.87 1017.08 1017.25 1017.36 1017.42 1017.43 1017.39 1017.33 1017.24 1017.14 1017.03 1016.93 1016.82 1016.71 1016.59 1016.46 1016.31 1016.15 1015.96 1015.76 1015.56 1015.35 1015.14 1014.95 1014.78 1014.63 1014.50 1014.37
1011.96 1012.32 1012.67 1013.01 1013.34 1013.65 1013.94 1014.22 1014.50 1014.77 1015.05 1015.33 1015.61 1015.89 1016.14 1016.37 1016.56 1016.70 1016.79 1016.82 1016.80 1016.74 1016.64 1016.51 1016.38 1016.23 1016.09 1015.95 1015.81 1015.67 1015.52 1015.36 1015.18 1014.99 1014.79 1014.58 1014.36 1014.15 1013.95 1013.77 1013.61 1013.47 1013.34
1012.06 1012.36 1012.66 1012.97 1013.26 1013.55 1013.82 1014.07 1014.32 1014.57 1014.81 1015.05 1015.30 1015.53 1015.75 1015.94 1016.10 1016.22 1016.29 1016.30 1016.26 1016.17 1016.04 1015.89 1015.72 1015.54 1015.36 1015.19 1015.02 1014.85 1014.68 1014.51 1014.32 1014.13 1013.92 1013.71 1013.50 1013.29 1013.09 1012.92 1012.76 1012.62 1012.50
1012.24 1012.49 1012.75 1013.02 1013.29 1013.55 1013.80 1014.03 1014.26 1014.47 1014.68 1014.89 1015.10 1015.30 1015.49 1015.65 1015.78 1015.88 1015.92 1015.92 1015.86 1015.76 1015.61 1015.44 1015.24 1015.03 1014.82 1014.62 1014.41 1014.22 1014.02 1013.83 1013.63 1013.42 1013.21 1013.00 1012.79 1012.60 1012.41 1012.25 1012.10 1011.98 1011.87
1012.55 1012.76 1012.98 1013.22 1013.46 1013.70 1013.92 1014.14 1014.34 1014.53 1014.71 1014.89 1015.07 1015.23 1015.39 1015.53 1015.64 1015.71 1015.75 1015.73 1015.66 1015.55 1015.40 1015.21 1014.99 1014.76 1014.52 1014.28 1014.04 1013.81 1013.58 1013.36 1013.14 1012.91 1012.70 1012.48 1012.28 1012.09 1011.92 1011.77 1011.64 1011.54 1011.44
1013.03 1013.20 1013.39 1013.60 1013.81 1014.02 1014.23 1014.42 1014.60 1014.76 1014.92 1015.07 1015.22 1015.36 1015.49 1015.60 1015.69 1015.75 1015.77 1015.75 1015.68 1015.56 1015.40 1015.20 1014.97 1014.73 1014.46 1014.19 1013.92 1013.65 1013.38 1013.12 1012.87 1012.62 1012.38 1012.16 1011.95 1011.77 1011.60 1011.46 1011.35 1011.25 1011.16
1013.70 1013.84 1014.00 1014.18 1014.37 1014.55 1014.73 1014.89 1015.04 1015.18 1015.31 1015.44 1015.55 1015.66 1015.77 1015.86 1015.93 1015.97 1015.98 1015.95 1015.87 1015.75 1015.59 1015.39 1015.16 1014.89 1014.61 1014.32 1014.01 1013.71 1013.40 1013.10 1012.81 1012.52 1012.26 1012.01 1011.79 1011.59 1011.42 1011.28 1011.16 1011.06 1010.97
1014.55 1014.67 1014.81 1014.96 1015.11 1015.26 1015.41 1015.54 1015.66 1015.77 1015.87 1015.96 1016.04 1016.12 1016.19 1016.25 1016.30 1016.32 1016.31 1016.27 1016.18 1016.06 1015.90 1015.69 1015.46 1015.19 1014.89 1014.58 1014.25 1013.91 1013.57 1013.23 1012.89 1012.57 1012.26 1011.98 1011.73 1011.51 1011.32 1011.16 1011.03 1010.91 1010.80
1015.56 1015.66 1015.77 1015.88 1015.99 1016.10 1016.21 1016.30 1016.38 1016.46 1016.52 1016.57 1016.62 1016.67 1016.70 1016.73 1016.73 1016.72 1016.69 1016.63 1016.53 1016.40 1016.23 1016.02 1015.79 1015.51 1015.21 1014.89 1014.54 1014.18 1013.81 1013.43 1013.06 1012.69 1012.34 1012.02 1011.73 1011.47 1011.24 1011.05 1010.88 1010.74 1010.60
1016.64 1016.71 1016.79 1016.86 1016.93 1017.00 1017.06 1017.11 1017.15 1017.18 1017.21 1017.22 1017.23 1017.23 1017.22 1017.20 1017.17 1017.12 1017.05 1016.96 1016.84 1016.69 1016.51 1016.30 1016.06 1015.79 1015.49 1015.16 1014.81 1014.44 1014.04 1013.64 1013.23 1012.83 1012.44 1012.07 1011.73 1011.43 1011.16 1010.92 1010.71 1010.52 1010.34
Thickness
5725 5724 5722 5721 5719 5718 5716 5714 5713 5712 5711 5710 5708 5708 5707 5705 5704 5701 5701 5699 5699 5699 5697 5695 5693 5692 5692 5691 5690 5689 5689 5687 5682 5680 5679 5678 5676 5676 5676 5677 5678 5679 5678
5725 5724 5722 5720 5719 5717 5716 5714 5713 5711 5710 5709 5707 5706 5704 5703 5702 5700 5698 5697 5696 5695 5694 5693 5691 5689 5688 5688 5686 5686 5684 5684 5681 5676 5676 5675 5674 5673 5672 5673 5674 5675 5674
5724 5723 5722 5720 5718 5717 5715 5713 5712 5710 5708 5707 5706 5704 5702 5701 5699 5698 5697 5696 5694 5693 5691 5690 5689 5687 5685 5684 5683 5682 5681 5679 5677 5676 5673 5670 5671 5669 5669 5669 5670 5669 5670
5724 5722 5721 5720 5718 5716 5715 5712 5710 5709 5707 5705 5704 5702 5700 5698 5697 5696 5694 5693 5692 5690 5688 5687 5686 5684 5682 5681 5679 5678 5676 5675 5673 5672 5670 5668 5667 5665 5666 5666 5666 5666 5665
5724 5722 5721 5720 5718 5715 5712 5710 5708 5706 5704 5703 5701 5699 5697 5695 5694 5692 5692 5690 5690 5688 5686 5684 5681 5678 5675 5675 5675 5673 5672 5670 5669 5667 5665 5665 5663 5661 5661 5661 5661 5661 5661
5724 5722 5720 5718 5715 5712 5710 5708 5705 5703 5701 5699 5697 5696 5694 5691 5687 5685 5686 5687 5687 5685 5683 5681 5677 5674 5670 5668 5667 5665 5664 5665 5665 5662 5661 5660 5659 5657 5654 5655 5655 5656 5656
5723 5721 5718 5716 5712 5710 5708 5705 5701 5699 5697 5695 5693 5692 5690 5687 5683 5681 5680 5682 5683 5682 5680 5678 5675 5672 5668 5667 5663 5660 5658 5655 5654 5657 5656 5655 5653 5652 5649 5649 5648 5648 5647
5723 5720 5717 5713 5710 5707 5704 5701 5699 5698 5694 5691 5690 5688 5686 5683 5679 5677 5676 5678 5678 5677 5675 5674 5671 5669 5665 5663 5661 5659 5657 5654 5650 5650 5650 5648 5646 5644 5642 5641 5640 5640 5640
5721 5719 5716 5712 5708 5704 5701 5699 5697 5695 5692 5689 5687 5685 5682 5680 5675 5673 5671 5674 5673 5672 5670 5668 5666 5664 5658 5655 5655 5654 5651 5648 5644 5642 5640 5638 5635 5633 5632 5632 5632 5632 5633
5720 5718 5715 5712 5707 5703 5700 5698 5694 5691 5688 5686 5683 5681 5679 5677 5672 5669 5666 5670 5669 5668 5665 5663 5658 5656 5652 5649 5649 5648 5646 5644 5641 5638 5634 5632 5630 5628 5624 5624 5624 5624 5624
5718 5715 5712 5709 5705 5702 5698 5694 5691 5688 5685 5682 5680 5677 5676 5673 5669 5665 5662 5664 5664 5663 5661 5658 5655 5649 5645 5643 5641 5641 5639 5635 5634 5632 5630 5628 5625 5623 5620 5617 5615 5613 5613
5714 5711 5708 5705 5702 5698 5693 5690 5688 5684 5680 5678 5676 5674 5672 5669 5665 5662 5658 5657 5657 5657 5655 5653 5650 5644 5640 5636 5634 5632 5629 5626 5626 5625 5623 5621 5618 5616 5613 5610 5607 5604 5601
5708 5705 5703 5701 5697 5694 5690 5686 5683 5680 5678 5676 5674 5671 5669 5667 5663 5658 5654 5652 5649 5649 5649 5645 5641 5636 5633 5630 5626 5623 5620 5619 5618 5616 5615 5613 5610 5607 5604 5600 5598 5594 5592
5703 5700 5698 5696 5692 5690 5686 5684 5680 5678 5675 5673 5671 5668 5666 5663 5660 5656 5652 5648 5644 5641 5640 5637 5632 5629 5625 5623 5621 5617 5614 5612 5610 5608 5606 5604 5600 5597 5593 5591 5588 5586 5584
5698 5695 5693 5690 5688 5684 5681 5679 5677 5675 5674 5670 5668 5666 5662 5659 5657 5652 5648 5646 5642 5639 5635 5632 5629 5625 5622 5619 5616 5613 5609 5606 5602 5599 5596 5594 5591 5588 5585 5582 5579 5576 5575
5692 5689 5686 5683 5680 5678 5675 5672 5667 5666 5663 5661 5659 5658 5657 5653 5649 5644 5640 5637 5633 5629 5626 5625 5623 5620 5617 5614 5611 5607 5602 5599 5595 5591 5588 5585 5582 5579 5576 5573 5569 5566 5565
5686 5683 5679 5677 5674 5672 5670 5667 5664 5659 5654 5652 5650 5648 5646 5644 5640 5636 5632 5628 5624 5619 5618 5619 5617 5614 5610 5607 5603 5599 5596 5592 5587 5583 5579 5576 5573 5570 5567 5563 5560 5557 5555
5677 5674 5671 5669 5667 5666 5663 5661 5659 5657 5653 5651 5646 5641 5638 5635 5632 5628 5624 5619 5617 5613 5613 5612 5610 5607 5603 5599 5595 5591 5587 5583 5578 5574 5571 5567 5563 5560 5556 5553 5550 5547 5545
5667 5665 5663 5661 5659 5657 5655 5653 5651 5649 5647 5644 5642 5637 5631 5627 5624 5620 5615 5615 5615 5612 5608 5605 5602 5598 5594 5590 5586 5581 5577 5573 5569 5565 5562 5557 5553 5549 5546 5544 5541 5537 5532
5656 5652 5651 5651 5650 5648 5646 5644 5642 5639 5637 5635 5633 5630 5625 5621 5619 5615 5610 5609 5607 5605 5601 5597 5593 5589 5585 5580 5576 5572 5568 5564 5560 5556 5553 5549 5544 5540 5537 5534 5531 5527 5524
5647 5644 5640 5641 5640 5638 5636 5634 5632 5629 5627 5625 5623 5619 5613 5612 5611 5608 5605 5601 5598 5595 5591 5587 5583 5579 5574 5569 5565 5562 5558 5555 5551 5547 5544 5540 5535 5531 5528 5524 5521 5517 5514
5637 5635 5632 5631 5629 5627 5625 5623 5622 5619 5617 5614 5612 5609 5603 5602 5601 5598 5595 5593 5589 5585 5580 5576 5572 5568 5563 5559 5555 5551 5548 5545 5541 5537 5534 5530 5526 5522 5518 5515 5512 5508 5504
5625 5624 5621 5619 5617 5613 5613 5612 5610 5608 5605 5603 5601 5598 5595 5592 5589 5587 5584 5581 5577 5574 5569 5564 5561 5557 5553 5549 5545 5541 5538 5535 5531 5526 5522 5519 5515 5512 5508 5505 5501 5498 5494
5613 5611 5609 5608 5606 5604 5602 5600 5598 5595 5593 5591 5589 5586 5584 5580 5578 5575 5572 5568 5565 5561 5558 5554 5550 5547 5543 5538 5534 5531 5527 5523 5518 5514 5510 5507 5504 5501 5498 5495 5491 5487 5482
5600 5598 5597 5595 5593 5591 5589 5587 5585 5583 5580 5578 5576 5573 5570 5568 5565 5562 5559 5555 5552 5549 5545 5542 5539 5535 5532 5528 5524 5520 5516 5511 5505 5501 5498 5495 5493 5490 5487 5484 5480 5476 5471
5586 5585 5583 5581 5579 5577 5575 5573 5571 5569 5566 5564 5561 5558 5555 5553 5550 5548 5545 5542 5539 5536 5533 5530 5526 5523 5520 5516 5513 5509 5504 5499 5494 5489 5485 5483 5482 5480 5476 5473 5469 5465 5461